Wiley Ford, WV

11:03 PM EST on January 23, 2017 (GMT -0500)
Greater Cumberland Regional

Weather History for KCBE - June, 2013

Change the Weather History Date:

Thursday, June 20, 2013

  Actual Average (KMRB) Record (KMRB)
Temperature  
Mean Temperature 68 °F -  
Max Temperature 82 °F 83 °F 98 °F (1931)
Min Temperature 55 °F 61 °F 45 °F (1926)
Cooling Degree Days 4    
Growing Degree Days 18 (Base 50)    
Moisture  
Dew Point 58 °F    
Average Humidity 69    
Maximum Humidity 100    
Minimum Humidity 45    
Precipitation  
Precipitation 0.00 in - - ()
Sea Level Pressure  
Sea Level Pressure 30.25 in    
Wind  
Wind Speed 3 mph (ESE)    
Max Wind Speed 9 mph    
Max Gust Speed -    
Visibility 10 miles    
Events      
Averages and records for this station are not official NWS values.
T = Trace of Precipitation, MM = Missing Value Source: NWS Daily Summary

Daily Weather History Graph

Daily Weather History Graph

Search for Another Location

Airport or City:

Trip Planner

Search our weather history database for the weather conditions in past years. The results will help you decide how hot, cold, wet, or windy it might be!

Date:

Astronomy

Jun. 20, 2013 Rise Set
Actual Time 5:47 AM EDT 8:45 PM EDT
Civil Twilight 5:14 AM EDT 9:18 PM EDT
Nautical Twilight 4:33 AM EDT 9:59 PM EDT
Astronomical Twilight 3:45 AM EDT 10:47 PM EDT
Moon 5:46 PM EDT (6/20) 3:12 AM EDT (6/20)
Length of Visible Light 16h 03m
Length of Day
14h 58m
Waxing Gibbous, 89% of the Moon is Illuminated
Jun 20
Waxing Gibbous
Jun 23
Full
Jun 30
Last Quarter
Jul 8
New
Jul 15
First Quarter

Hourly Weather History & Observations

Time (EDT) Temp. Heat Index Dew Point Humidity Pressure Visibility Wind Dir Wind Speed Gust Speed Precip Events Conditions
12:11 AM 62.6 °F - 57.2 °F 82% 30.20 in 10.0 mi North 3.5 mph - N/A   Clear
12:31 AM 62.6 °F - 55.4 °F 77% 30.21 in 10.0 mi North 3.5 mph - N/A   Clear
12:51 AM 60.8 °F - 57.2 °F 88% 30.22 in 10.0 mi North 4.6 mph - N/A   Clear
1:11 AM 60.8 °F - 55.4 °F 82% 30.22 in 10.0 mi North 4.6 mph - N/A   Clear
1:31 AM 60.8 °F - 55.4 °F 82% 30.22 in 10.0 mi North 4.6 mph - N/A   Clear
1:51 AM 60.8 °F - 55.4 °F 82% 30.22 in 10.0 mi North 3.5 mph - N/A   Clear
2:11 AM 59.0 °F - 55.4 °F 88% 30.22 in 10.0 mi North 4.6 mph - N/A   Clear
2:31 AM 59.0 °F - 55.4 °F 88% 30.22 in 10.0 mi North 3.5 mph - N/A   Clear
2:51 AM 59.0 °F - 55.4 °F 88% 30.22 in 10.0 mi North 3.5 mph - N/A   Clear
3:11 AM 59.0 °F - 55.4 °F 88% 30.22 in 10.0 mi NNE 3.5 mph - N/A   Clear
3:31 AM 59.0 °F - 55.4 °F 88% 30.22 in 10.0 mi North 3.5 mph - N/A   Clear
3:51 AM 59.0 °F - 55.4 °F 88% 30.22 in 10.0 mi North 4.6 mph - N/A   Scattered Clouds
4:11 AM 59.0 °F - 53.6 °F 82% 30.22 in 10.0 mi Calm Calm - N/A   Scattered Clouds
4:31 AM 57.2 °F - 53.6 °F 88% 30.22 in 10.0 mi Calm Calm - N/A   Clear
4:51 AM 57.2 °F - 53.6 °F 88% 30.23 in 10.0 mi Calm Calm - N/A   Clear
5:11 AM 55.4 °F - 53.6 °F 94% 30.23 in 7.0 mi Calm Calm - N/A   Clear
5:31 AM 55.4 °F - 53.6 °F 94% 30.24 in 5.0 mi Calm Calm - N/A   Scattered Clouds
5:51 AM 55.4 °F - 53.6 °F 94% 30.25 in 10.0 mi Calm Calm - N/A   Scattered Clouds
6:11 AM 55.4 °F - 53.6 °F 94% 30.25 in 10.0 mi Calm Calm - N/A   Scattered Clouds
6:31 AM 55.4 °F - 55.4 °F 100% 30.25 in 10.0 mi Calm Calm - N/A   Mostly Cloudy
6:51 AM 57.2 °F - 55.4 °F 94% 30.26 in 10.0 mi Calm Calm - N/A   Mostly Cloudy
7:11 AM 59.0 °F - 55.4 °F 88% 30.27 in 10.0 mi North 3.5 mph - N/A   Mostly Cloudy
7:31 AM 59.0 °F - 53.6 °F 82% 30.27 in 10.0 mi North 3.5 mph - N/A   Overcast
7:52 AM 59.0 °F - 55.4 °F 88% 30.27 in 10.0 mi Calm Calm - N/A   Scattered Clouds
8:12 AM 60.8 °F - 55.4 °F 82% 30.28 in 10.0 mi Calm Calm - N/A   Clear
8:32 AM 62.6 °F - 55.4 °F 77% 30.28 in 10.0 mi Calm Calm - N/A   Clear
8:52 AM 64.4 °F - 55.4 °F 73% 30.29 in 10.0 mi Calm Calm - N/A   Clear
9:12 AM 66.2 °F - 55.4 °F 68% 30.28 in 10.0 mi Calm Calm - N/A   Clear
9:32 AM 68.0 °F - 57.2 °F 68% 30.28 in 10.0 mi Calm Calm - N/A   Clear
9:52 AM 69.8 °F - 57.2 °F 64% 30.28 in 10.0 mi Calm Calm - N/A   Clear
10:12 AM 69.8 °F - 59.0 °F 68% 30.28 in 10.0 mi SSW 3.5 mph - N/A   Clear
10:32 AM 71.6 °F - 59.0 °F 64% 30.28 in 10.0 mi Calm Calm - N/A   Clear
10:52 AM 71.6 °F - 59.0 °F 64% 30.28 in 10.0 mi Calm Calm - N/A   Clear
11:12 AM 73.4 °F - 60.8 °F 65% 30.28 in 10.0 mi SE 4.6 mph - N/A   Clear
11:32 AM 73.4 °F - 60.8 °F 65% 30.28 in 10.0 mi Calm Calm - N/A   Clear
11:52 AM 75.2 °F - 60.8 °F 61% 30.28 in 10.0 mi South 3.5 mph - N/A   Clear
12:12 PM 77.0 °F - 62.6 °F 61% 30.27 in 10.0 mi South 5.8 mph - N/A   Clear
12:32 PM 77.0 °F - 62.6 °F 61% 30.27 in 10.0 mi South 4.6 mph - N/A   Clear
12:52 PM 78.8 °F - 60.8 °F 54% 30.26 in 10.0 mi South 5.8 mph - N/A   Clear
1:12 PM 78.8 °F - 60.8 °F 54% 30.25 in 10.0 mi East 5.8 mph - N/A   Clear
1:32 PM 80.6 °F 81.5 °F 60.8 °F 51% 30.25 in 10.0 mi East 3.5 mph - N/A   Scattered Clouds
1:52 PM 80.6 °F 81.1 °F 59.0 °F 48% 30.24 in 10.0 mi SE 4.6 mph - N/A   Scattered Clouds
2:12 PM 80.6 °F 81.1 °F 59.0 °F 48% 30.24 in 10.0 mi SE 6.9 mph - N/A   Scattered Clouds
2:32 PM 82.4 °F 82.5 °F 59.0 °F 45% 30.24 in 10.0 mi ESE 6.9 mph - N/A   Clear
2:52 PM 82.4 °F 82.5 °F 59.0 °F 45% 30.23 in 10.0 mi ESE 6.9 mph - N/A   Scattered Clouds
3:12 PM 80.6 °F 81.1 °F 59.0 °F 48% 30.23 in 10.0 mi SE 4.6 mph - N/A   Scattered Clouds
3:32 PM 80.6 °F 81.1 °F 59.0 °F 48% 30.22 in 10.0 mi East 5.8 mph - N/A   Scattered Clouds
3:52 PM 82.4 °F 82.5 °F 59.0 °F 45% 30.22 in 10.0 mi SE 4.6 mph - N/A   Scattered Clouds
4:12 PM 82.4 °F 82.5 °F 59.0 °F 45% 30.22 in 10.0 mi SE 5.8 mph - N/A   Clear
4:32 PM 80.6 °F 81.1 °F 59.0 °F 48% 30.22 in 10.0 mi ESE 4.6 mph - N/A   Scattered Clouds
4:52 PM 82.4 °F 82.9 °F 60.8 °F 48% 30.23 in 10.0 mi ESE 5.8 mph - N/A   Clear
5:13 PM 82.4 °F 82.5 °F 59.0 °F 45% 30.22 in 10.0 mi ESE 6.9 mph - N/A   Scattered Clouds
5:33 PM 78.8 °F - 60.8 °F 54% 30.22 in 10.0 mi ESE 8.1 mph - N/A   Mostly Cloudy
5:53 PM 78.8 °F - 60.8 °F 54% 30.22 in 10.0 mi SE 5.8 mph - N/A   Scattered Clouds
6:13 PM 78.8 °F - 60.8 °F 54% 30.23 in 10.0 mi SE 5.8 mph - N/A   Scattered Clouds
6:33 PM 78.8 °F - 60.8 °F 54% 30.23 in 10.0 mi SE 6.9 mph - N/A   Scattered Clouds
6:53 PM 78.8 °F - 60.8 °F 54% 30.24 in 10.0 mi SE 4.6 mph - N/A   Clear
7:13 PM 77.0 °F - 60.8 °F 57% 30.24 in 10.0 mi SE 9.2 mph - N/A   Clear
7:33 PM 77.0 °F - 60.8 °F 57% 30.25 in 10.0 mi SE 5.8 mph - N/A   Mostly Cloudy
7:53 PM 75.2 °F - 60.8 °F 61% 30.25 in 10.0 mi ESE 6.9 mph - N/A   Overcast
8:13 PM 75.2 °F - 60.8 °F 61% 30.25 in 10.0 mi SE 3.5 mph - N/A   Mostly Cloudy
8:33 PM 73.4 °F - 60.8 °F 65% 30.26 in 10.0 mi Calm Calm - N/A   Scattered Clouds
8:53 PM 73.4 °F - 60.8 °F 65% 30.25 in 10.0 mi ESE 5.8 mph - N/A   Mostly Cloudy
9:13 PM 73.4 °F - 60.8 °F 65% 30.26 in 10.0 mi Calm Calm - N/A   Scattered Clouds
9:33 PM 71.6 °F - 60.8 °F 69% 30.26 in 10.0 mi Calm Calm - N/A   Clear
9:53 PM 71.6 °F - 60.8 °F 69% 30.27 in 10.0 mi Calm Calm - N/A   Scattered Clouds
10:13 PM 71.6 °F - 60.8 °F 69% 30.27 in 10.0 mi Calm Calm - N/A   Scattered Clouds
10:33 PM 69.8 °F - 60.8 °F 73% 30.27 in 10.0 mi Calm Calm - N/A   Scattered Clouds
10:53 PM 69.8 °F - 60.8 °F 73% 30.27 in 10.0 mi Calm Calm - N/A   Clear
11:13 PM 69.8 °F - 60.8 °F 73% 30.27 in 10.0 mi Calm Calm - N/A   Clear
11:33 PM 68.0 °F - 60.8 °F 78% 30.27 in 10.0 mi Calm Calm - N/A   Clear
11:53 PM 68.0 °F - 60.8 °F 78% 30.27 in 10.0 mi Calm Calm - N/A   Clear